Vertical_Velocity
-4 -4 -4 -5 -5 -5 -7 -4 -4 -3 -5 -2 -2 -2 -4 -4 -0 -0 1 1 -0 -1
-5 -7 -5 -3 -3 -6 -4 -6 -4 -4 -4 -2 -1 -1 -3 -5 -4 -6 0 2 0 -2
-3 -4 -1 -1 -2 -1 -1 -4 -7 -5 -4 -3 -2 -1 -1 -1 1 -5 -1 -3 -1 4
2 3 1 -3 -1 -4 -2 -1 -3 -2 -2 -0 -1 2 -3 -2 -1 -5 -3 -0 -4 -3
-3 -0 -2 -5 -0 -1 -4 0 -7 -3 -3 -2 -1 -1 -2 -3 1 -4 -4 2 -4 -2
-0 -4 -2 -2 -2 0 -4 -1 2 -4 -3 -2 0 -2 1 -5 -1 -1 -2 3 -1 5
-2 2 -1 -3 -4 -6 -3 -6 -1 0 -1 -1 -0 -1 -1 -3 -2 -1 -1 2 0 1
-1 -5 -3 -4 -4 -2 -2 -2 -3 -2 1 -0 -2 -1 -4 -3 -3 -1 0 1 -1 -0
-4 -3 -2 -5 -4 -3 -1 -2 -2 -1 -2 -1 -1 -2 0 0 -2 -1 -3 -4 -0 2
-5 -2 -3 -4 -4 -1 -3 -4 -1 0 0 1 -0 2 4 4 1 1 1 0 0 -2
-6 -4 -4 -3 -2 -1 -5 -3 -1 1 2 1 2 1 1 2 2 1 1 -2 -1 -3
-4 -4 -5 -3 -4 -2 -4 1 2 -0 -3 1 -0 2 1 1 0 -2 -4 -1 0 -1
-2 -4 -5 -3 -2 -4 1 0 -4 -0 2 3 2 7 4 3 -0 -3 -5 3 -2 2
2 -5 0 -4 0 -1 -2 -1 3 -3 3 1 2 0 2 3 1 2 -1 -1 -0 0
Height
3049 3041 3033 3026 3019 3014 3008 3003 2999 2994 2991 2988 2984 2980 2977 2972 2969 2968 2966 2964 2963 2960
3037 3030 3022 3016 3011 3004 2999 2992 2987 2982 2976 2973 2970 2966 2961 2957 2955 2952 2950 2948 2947 2945
3024 3018 3012 3006 3000 2995 2988 2982 2976 2970 2964 2959 2954 2950 2945 2942 2939 2934 2933 2932 2931 2930
3016 3008 3002 2996 2990 2983 2976 2970 2964 2958 2951 2945 2939 2934 2928 2925 2922 2919 2917 2916 2914 2914
3006 2999 2993 2987 2980 2973 2965 2958 2950 2943 2937 2930 2924 2918 2912 2908 2905 2901 2900 2899 2897 2898
2996 2989 2983 2975 2968 2961 2953 2945 2937 2929 2922 2916 2909 2903 2897 2892 2888 2885 2883 2881 2879 2880
2988 2981 2972 2965 2957 2949 2941 2932 2924 2916 2908 2901 2894 2887 2882 2877 2872 2869 2866 2864 2862 2861
2979 2971 2964 2956 2947 2938 2929 2920 2912 2902 2895 2887 2879 2872 2865 2859 2854 2849 2846 2843 2842 2842
2970 2963 2955 2946 2936 2927 2917 2908 2899 2890 2880 2871 2862 2855 2847 2841 2834 2829 2824 2822 2823 2824
2962 2953 2945 2936 2926 2916 2905 2896 2886 2877 2866 2856 2847 2839 2832 2826 2819 2814 2811 2810 2810 2810
2951 2944 2936 2926 2916 2906 2895 2885 2875 2865 2856 2843 2833 2824 2817 2812 2807 2803 2800 2799 2799 2798
2943 2934 2926 2916 2906 2897 2885 2876 2867 2856 2843 2831 2822 2813 2805 2799 2793 2789 2787 2787 2786 2785
2936 2927 2916 2907 2897 2887 2877 2867 2856 2847 2835 2823 2813 2804 2796 2789 2782 2775 2773 2772 2770 2770
2930 2919 2909 2899 2891 2879 2869 2860 2851 2839 2827 2814 2804 2796 2789 2782 2776 2769 2762 2756 2753 2753